DLH25E CYYZ-KJFK

Flight info

Callsign DLH25E
Flight time N/A
Altitude 37000
Route KEPTA3BMPAH/23 KEPTA3 BMPAH DCT AEVON DCT EXTOL Q140 MEMMS PUCKY1
Aircraft A359/H-SDE2E3GHIJ3J4J5LM1ORWXY/LB1D1

Departure

Time N/A
Airport Toronto Pearson International Airport (CYYZ)

Arrival

Time 2026-05-08 02:00
Airport John F. Kennedy International Airport (KJFK)
Time Latitude Longitude Altitude Speed Heading
2026-05-08 01:19 42.47023 -76.20193 36915 ft 547 kts 128°
2026-05-08 01:19 42.43039 -76.11406 36887 ft 547 kts 129°
2026-05-08 01:20 42.39048 -76.02634 36897 ft 547 kts 129°
2026-05-08 01:20 42.35051 -75.93875 36877 ft 548 kts 129°
2026-05-08 01:21 42.31039 -75.85107 36910 ft 548 kts 129°
2026-05-08 01:21 42.27022 -75.76349 36888 ft 548 kts 129°
2026-05-08 01:22 42.22997 -75.67602 36903 ft 548 kts 129°
2026-05-08 01:22 42.18991 -75.58922 36901 ft 548 kts 129°
2026-05-08 01:23 42.14930 -75.50143 36903 ft 548 kts 129°
2026-05-08 01:23 42.10885 -75.41433 36870 ft 548 kts 130°
2026-05-08 01:24 42.07128 -75.32559 36853 ft 559 kts 119°
2026-05-08 01:24 42.05953 -75.27509 36888 ft 572 kts 107°
2026-05-08 01:24 42.05295 -75.22209 36897 ft 575 kts 102°
2026-05-08 01:25 42.04230 -75.11527 36894 ft 576 kts 102°
2026-05-08 01:25 42.03150 -75.00849 36900 ft 577 kts 102°
2026-05-08 01:26 42.02034 -74.90142 36908 ft 578 kts 103°
2026-05-08 01:26 42.00886 -74.79465 36901 ft 576 kts 103°
2026-05-08 01:26 42.00313 -74.74144 36664 ft 574 kts 103°
2026-05-08 01:27 41.99738 -74.68832 36447 ft 575 kts 103°
2026-05-08 01:27 41.99160 -74.63506 36191 ft 575 kts 103°
2026-05-08 01:27 41.98584 -74.58208 35657 ft 573 kts 103°
2026-05-08 01:27 41.97989 -74.52913 34929 ft 571 kts 105°
2026-05-08 01:28 41.96969 -74.47811 34194 ft 560 kts 118°
2026-05-08 01:28 41.95200 -74.43256 33282 ft 544 kts 133°
2026-05-08 01:28 41.92982 -74.39178 32514 ft 537 kts 136°
2026-05-08 01:28 41.90705 -74.35216 31687 ft 536 kts 137°
2026-05-08 01:29 41.88420 -74.31256 30895 ft 536 kts 137°
2026-05-08 01:29 41.86137 -74.27292 30057 ft 538 kts 137°
2026-05-08 01:29 41.83849 -74.23310 29169 ft 537 kts 137°
2026-05-08 01:29 41.81589 -74.19365 28603 ft 530 kts 137°
2026-05-08 01:30 41.79357 -74.15471 27982 ft 524 kts 137°
2026-05-08 01:30 41.77153 -74.11630 27066 ft 514 kts 137°
2026-05-08 01:30 41.74847 -74.08099 25724 ft 492 kts 148°
2026-05-08 01:30 41.72158 -74.05555 24567 ft 458 kts 164°
2026-05-08 01:31 41.69284 -74.04136 23446 ft 426 kts 178°
2026-05-08 01:31 41.66432 -74.03724 22053 ft 401 kts 190°
2026-05-08 01:31 41.63731 -74.04143 20648 ft 385 kts 198°
2026-05-08 01:31 41.61090 -74.04715 19273 ft 383 kts 195°
2026-05-08 01:32 41.58459 -74.05192 17973 ft 379 kts 194°
2026-05-08 01:32 41.55851 -74.05629 16482 ft 377 kts 193°
2026-05-08 01:32 41.53234 -74.06056 15296 ft 383 kts 193°
2026-05-08 01:32 41.50583 -74.06478 14519 ft 384 kts 193°
2026-05-08 01:33 41.47939 -74.06884 14229 ft 381 kts 192°
2026-05-08 01:33 41.45308 -74.07234 14431 ft 377 kts 191°
2026-05-08 01:33 41.42731 -74.07473 14245 ft 365 kts 189°
2026-05-08 01:33 41.40241 -74.07672 14013 ft 351 kts 190°
2026-05-08 01:34 41.37889 -74.07863 13956 ft 335 kts 190°
2026-05-08 01:34 41.35629 -74.08049 13953 ft 317 kts 191°
2026-05-08 01:34 41.33484 -74.08232 13960 ft 300 kts 191°
2026-05-08 01:34 41.31435 -74.08412 13962 ft 294 kts 191°
2026-05-08 01:35 41.29396 -74.08594 13966 ft 294 kts 191°
2026-05-08 01:35 41.27356 -74.08777 13958 ft 294 kts 191°
2026-05-08 01:35 41.25321 -74.08964 13964 ft 293 kts 191°
2026-05-08 01:35 41.23290 -74.09147 13968 ft 293 kts 191°
2026-05-08 01:36 41.21261 -74.09330 13964 ft 292 kts 191°
2026-05-08 01:36 41.19230 -74.09512 13966 ft 293 kts 190°
2026-05-08 01:36 41.17195 -74.09683 13963 ft 292 kts 191°
2026-05-08 01:36 41.15167 -74.09874 13973 ft 292 kts 192°
2026-05-08 01:37 41.13139 -74.10064 13974 ft 292 kts 191°
2026-05-08 01:37 41.11107 -74.10248 13975 ft 292 kts 191°
2026-05-08 01:37 41.09079 -74.10431 13974 ft 292 kts 191°
2026-05-08 01:37 41.07051 -74.10611 13976 ft 292 kts 192°
2026-05-08 01:38 41.05020 -74.10794 13981 ft 292 kts 192°
2026-05-08 01:38 41.02986 -74.10978 13980 ft 293 kts 192°
2026-05-08 01:38 41.00952 -74.11162 13984 ft 293 kts 192°
2026-05-08 01:38 40.98917 -74.11345 13986 ft 293 kts 192°
2026-05-08 01:39 40.96885 -74.11528 13985 ft 293 kts 192°
2026-05-08 01:39 40.94852 -74.11711 13987 ft 293 kts 192°
2026-05-08 01:39 40.92798 -74.11715 13989 ft 298 kts 185°
2026-05-08 01:39 40.90723 -74.11496 13986 ft 302 kts 179°
2026-05-08 01:40 40.88656 -74.10805 13989 ft 310 kts 169°
2026-05-08 01:40 40.86626 -74.09832 13977 ft 312 kts 168°
2026-05-08 01:40 40.84597 -74.08788 13986 ft 313 kts 167°
2026-05-08 01:40 40.82572 -74.07736 13983 ft 313 kts 167°
2026-05-08 01:41 40.80553 -74.06686 13979 ft 313 kts 167°
2026-05-08 01:41 40.79210 -74.05988 13972 ft 313 kts 167°
2026-05-08 01:41 40.76504 -74.04580 13991 ft 313 kts 167°
2026-05-08 01:41 40.74479 -74.03528 13988 ft 313 kts 167°
2026-05-08 01:42 40.73144 -74.02836 13885 ft 308 kts 167°
2026-05-08 01:42 40.71154 -74.01802 13400 ft 308 kts 167°
2026-05-08 01:42 40.69155 -74.00785 13049 ft 308 kts 167°
2026-05-08 01:42 40.67142 -73.99779 12987 ft 310 kts 167°
2026-05-08 01:43 40.65128 -73.98774 12972 ft 309 kts 167°
2026-05-08 01:43 40.63126 -73.97755 12986 ft 308 kts 167°
2026-05-08 01:43 40.61142 -73.96728 12881 ft 305 kts 167°
2026-05-08 01:43 40.59178 -73.95717 12426 ft 304 kts 167°
2026-05-08 01:44 40.57195 -73.94725 11915 ft 304 kts 167°
2026-05-08 01:44 40.55212 -73.93766 11466 ft 303 kts 167°
2026-05-08 01:44 40.53226 -73.92836 11009 ft 303 kts 167°
2026-05-08 01:44 40.51241 -73.91938 10563 ft 302 kts 167°
2026-05-08 01:45 40.49268 -73.90972 10104 ft 306 kts 158°
2026-05-08 01:45 40.47598 -73.89217 9659 ft 312 kts 131°
2026-05-08 01:45 40.46588 -73.86704 9212 ft 312 kts 106°
2026-05-08 01:45 40.46406 -73.83904 8824 ft 307 kts 84°
2026-05-08 01:46 40.46715 -73.81154 8445 ft 302 kts 78°
2026-05-08 01:46 40.47104 -73.78457 8035 ft 300 kts 77°
2026-05-08 01:46 40.47504 -73.75781 7631 ft 297 kts 77°
2026-05-08 01:46 40.47902 -73.73128 7249 ft 294 kts 77°
2026-05-08 01:47 40.48302 -73.70509 6863 ft 291 kts 77°
2026-05-08 01:47 40.48701 -73.67947 6496 ft 289 kts 77°
2026-05-08 01:47 40.49106 -73.65376 6118 ft 286 kts 78°
2026-05-08 01:48 40.49869 -73.60344 5445 ft 276 kts 77°
2026-05-08 01:48 40.50282 -73.57862 5038 ft 273 kts 70°
2026-05-08 01:48 40.51231 -73.55769 4659 ft 265 kts 44°
2026-05-08 01:48 40.52628 -73.54273 4270 ft 261 kts 33°
2026-05-08 01:49 40.54117 -73.52934 4018 ft 258 kts 32°
2026-05-08 01:49 40.55613 -73.51617 3983 ft 259 kts 32°
2026-05-08 01:49 40.57117 -73.50296 3752 ft 262 kts 32°
2026-05-08 01:49 40.58620 -73.48982 3470 ft 255 kts 32°
2026-05-08 01:50 40.60068 -73.47721 3300 ft 244 kts 32°
2026-05-08 01:50 40.61464 -73.46508 3080 ft 237 kts 32°
2026-05-08 01:50 40.62822 -73.45328 2998 ft 234 kts 32°
2026-05-08 01:50 40.64182 -73.44149 2987 ft 234 kts 32°
2026-05-08 01:51 40.65544 -73.42968 2988 ft 234 kts 32°
2026-05-08 01:51 40.66905 -73.41790 2986 ft 234 kts 32°
2026-05-08 01:51 40.68267 -73.40618 2986 ft 234 kts 31°
2026-05-08 01:51 40.69754 -73.39913 2979 ft 221 kts
2026-05-08 01:52 40.71176 -73.40311 2983 ft 204 kts 328°
2026-05-08 01:52 40.72192 -73.41564 3009 ft 201 kts 310°
2026-05-08 01:52 40.73032 -73.43042 2996 ft 202 kts 307°
2026-05-08 01:52 40.73842 -73.44527 2986 ft 193 kts 307°
2026-05-08 01:53 40.74598 -73.45914 2979 ft 180 kts 307°
2026-05-08 01:53 40.75298 -73.47201 2986 ft 168 kts 307°
2026-05-08 01:53 40.75981 -73.48449 2987 ft 167 kts 307°
2026-05-08 01:53 40.76655 -73.49696 2986 ft 165 kts 307°
2026-05-08 01:54 40.77312 -73.50927 2993 ft 165 kts 307°
2026-05-08 01:54 40.77975 -73.52171 2991 ft 167 kts 307°
2026-05-08 01:54 40.78640 -73.53423 2967 ft 166 kts 307°
2026-05-08 01:54 40.79225 -73.54738 2959 ft 170 kts 290°
2026-05-08 01:55 40.79246 -73.56303 2970 ft 173 kts 263°
2026-05-08 01:55 40.78979 -73.57853 2969 ft 173 kts 258°
2026-05-08 01:55 40.78668 -73.59389 2967 ft 173 kts 257°
2026-05-08 01:55 40.78354 -73.60924 2971 ft 174 kts 257°
2026-05-08 01:56 40.78038 -73.62463 2981 ft 174 kts 257°
2026-05-08 01:56 40.77722 -73.64000 2985 ft 174 kts 257°
2026-05-08 01:56 40.77189 -73.65434 2942 ft 178 kts 232°
2026-05-08 01:56 40.76210 -73.66414 2747 ft 177 kts 210°
2026-05-08 01:57 40.75125 -73.67174 2488 ft 176 kts 209°
2026-05-08 01:57 40.74065 -73.67987 2249 ft 176 kts 212°
2026-05-08 01:57 40.73038 -73.68808 1996 ft 169 kts 212°
2026-05-08 01:57 40.72045 -73.69586 1760 ft 162 kts 212°
2026-05-08 01:58 40.71097 -73.70329 1544 ft 155 kts 212°
2026-05-08 01:58 40.70203 -73.71032 1338 ft 145 kts 211°
2026-05-08 01:58 40.69359 -73.71693 1160 ft 142 kts 211°
2026-05-08 01:58 40.68509 -73.72339 955 ft 140 kts 208°
2026-05-08 01:59 40.67659 -73.73026 809 ft 142 kts 211°
2026-05-08 01:59 40.66838 -73.73679 634 ft 138 kts 211°
2026-05-08 01:59 40.66028 -73.74305 422 ft 133 kts 212°
2026-05-08 01:59 40.65236 -73.74923 241 ft 134 kts 212°
2026-05-08 02:00 40.64438 -73.75550 72 ft 133 kts 214°
2026-05-08 02:00 40.63711 -73.76115 46 ft 115 kts 212°
2026-05-08 02:00 40.63136 -73.76584 32 ft 62 kts 217°
2026-05-08 02:00 40.63017 -73.76720 27 ft 4 kts 228°
2026-05-08 02:01 40.62963 -73.76822 27 ft 22 kts 240°
2026-05-08 02:01 40.62957 -73.77030 27 ft 24 kts 301°
2026-05-08 02:01 40.63044 -73.77220 27 ft 25 kts 301°
2026-05-08 02:01 40.63135 -73.77423 28 ft 26 kts 301°
2026-05-08 02:02 40.63229 -73.77632 29 ft 27 kts 301°
2026-05-08 02:02 40.63340 -73.77818 29 ft 25 kts 345°
2026-05-08 02:02 40.63471 -73.77739 27 ft 20 kts 15°
2026-05-08 02:02 40.63555 -73.77826 27 ft 17 kts 307°
2026-05-08 02:03 40.63649 -73.77893 27 ft 16 kts 356°
2026-05-08 02:03 40.63763 -73.77909 27 ft 18 kts 354°
2026-05-08 02:03 40.63820 -73.77932 27 ft 0 kts 322°
2026-05-08 02:03 40.63821 -73.77933 27 ft 2 kts 321°
2026-05-08 02:04 40.63846 -73.78005 27 ft 14 kts 270°
2026-05-08 02:04 40.63845 -73.78034 27 ft 0 kts 268°